Theta_e
316 316 316 316 316 316 316 315 314 313 313 313 312 311 311 310 310 313 315 317 318 318 317 319 318 316 313 313 313 308 300 297 297 292 294 291 290 290 288 289 291 288 288
315 315 314 315 315 315 315 315 314 313 312 312 312 311 310 310 310 311 313 316 318 317 317 316 318 314 313 313 312 306 302 298 293 292 294 289 290 289 290 290 288 289 287
314 314 314 314 314 314 314 314 313 313 312 311 310 310 310 309 309 311 314 315 316 316 316 316 317 314 313 313 310 304 302 298 293 293 290 290 290 292 290 289 289 288 287
314 314 314 313 314 313 313 312 312 312 312 311 310 309 308 308 308 310 312 314 315 314 315 315 314 313 313 311 305 302 299 296 293 290 292 291 292 290 290 291 291 287 287
314 314 314 313 312 312 312 311 311 310 311 310 309 308 307 307 307 308 310 312 312 312 313 313 311 312 310 306 303 301 297 293 290 290 292 293 292 294 294 293 287 288 290
314 313 313 312 311 311 311 310 310 309 309 308 308 307 306 306 306 308 309 310 310 311 311 309 308 308 305 302 299 296 295 291 288 291 295 294 294 295 294 289 288 288 287
312 312 312 311 311 310 309 309 309 308 307 307 306 305 305 305 305 308 308 308 309 308 308 307 305 303 300 298 297 294 290 288 292 296 295 294 294 294 292 286 287 288 286
312 312 312 312 311 310 308 308 307 306 305 305 304 303 303 303 305 306 306 306 307 305 305 303 301 298 296 295 294 288 287 290 294 294 293 293 293 292 290 288 287 287 286
311 311 311 311 311 311 310 307 305 304 303 302 302 301 300 301 303 304 304 305 304 302 300 296 293 290 291 292 289 288 290 292 293 293 292 292 291 291 289 286 287 286 285
310 310 310 310 308 307 306 306 304 303 302 301 300 298 299 300 301 301 301 301 299 297 294 292 289 289 290 289 288 289 291 292 292 292 291 290 290 289 287 286 285 284 283
307 307 306 306 306 305 303 302 301 300 299 298 296 297 298 298 298 297 296 294 293 292 291 289 288 288 288 288 289 291 291 291 291 290 290 290 289 288 287 286 285 283 283
305 303 303 301 300 301 300 299 299 298 297 295 295 296 297 297 296 294 291 290 290 290 290 289 288 287 287 289 290 290 290 289 289 289 289 288 288 288 286 285 284 283 282
303 301 299 299 298 297 297 296 296 296 293 295 295 295 294 293 293 290 289 289 289 289 289 288 288 287 287 288 289 288 288 288 288 288 288 288 287 286 284 283 283 282 281
300 298 297 295 295 295 294 294 295 295 294 294 294 294 293 293 292 289 289 288 289 289 289 288 288 288 288 288 287 287 287 287 287 287 287 286 285 284 283 283 281 280 279
298 298 296 293 293 293 293 294 293 292 292 293 292 292 292 292 291 290 290 289 289 289 288 288 288 288 288 288 288 287 287 287 287 286 286 285 284 283 283 282 281 280 279
293 295 295 293 293 293 294 293 292 293 293 292 292 292 292 292 291 291 290 290 289 289 289 288 288 288 288 287 287 287 286 286 285 285 284 283 282 282 281 280 279 278 277
293 295 294 293 293 295 294 294 293 291 290 290 291 291 291 292 292 291 291 290 289 287 287 287 287 286 286 285 284 284 285 284 283 282 282 281 281 280 279 278 277 277 276
291 292 293 293 292 292 292 291 291 291 291 290 290 290 290 289 289 290 289 289 288 287 286 285 284 285 285 285 284 283 282 282 281 281 280 280 279 278 277 277 276 275 272
290 291 292 291 290 290 290 290 289 289 288 288 288 288 288 287 287 287 286 286 286 285 284 284 283 283 283 282 281 281 280 280 280 279 279 278 277 277 276 275 273 272 271
290 291 292 290 289 289 289 288 287 287 287 287 286 286 286 286 285 285 284 284 284 283 283 282 282 282 281 281 280 279 279 278 278 277 277 276 275 273 272 272 271 271 271
292 290 289 289 288 288 288 287 287 287 286 286 286 285 284 284 284 284 283 283 283 283 282 282 281 280 280 279 278 278 278 277 276 275 273 273 272 271 271 270 270 270 269
289 288 288 287 287 287 286 286 286 285 285 284 284 284 284 283 283 282 282 282 281 281 280 279 279 278 277 276 276 275 274 273 273 272 272 271 271 270 269 269 269 269 268
287 286 286 286 285 285 285 285 284 284 284 283 282 282 281 281 280 280 279 278 277 277 276 275 275 274 274 273 273 272 272 272 271 271 270 270 269 268 268 268 268 268 267
286 286 285 285 284 284 284 283 282 281 281 280 280 280 279 279 278 278 277 277 276 276 275 275 274 273 273 272 271 271 270 270 270 269 268 268 267 267 267 267 266 266 266
284 283 283 283 282 282 281 281 280 280 279 279 278 278 278 277 276 276 275 275 274 274 273 272 272 271 271 270 270 269 269 268 268 268 267 267 267 266 266 266 266 266 265
281 280 281 280 280 280 280 279 279 278 278 277 277 276 275 275 274 274 273 273 272 271 271 270 270 269 269 269 268 268 268 268 268 267 267 267 267 266 266 266 266 266 265
Wind_Speed
11 14 17 22 25 25 27 27 28 29 30 31 32 32 29 31 35 41 44 47 44 46 47 43 41 35 35 42 45 46 44 41 32 28 31 30 23 23 22 18 18 20 18
19 22 24 26 30 32 31 30 30 31 30 32 32 32 31 29 30 33 41 45 45 47 41 48 42 35 40 42 46 48 43 36 33 28 29 30 26 21 17 17 19 16 23
24 27 30 31 32 35 33 31 31 31 31 31 33 32 32 31 31 30 32 40 43 44 44 46 44 39 40 43 45 43 40 41 34 29 32 31 24 20 21 20 17 20 22
29 30 34 34 31 32 33 33 33 34 33 32 32 31 30 30 31 31 34 35 37 41 40 41 43 42 42 44 40 37 37 34 25 29 28 27 22 20 21 19 20 22 17
31 35 39 34 29 31 35 37 36 35 33 32 31 29 29 30 32 33 33 35 39 35 39 42 41 40 40 38 35 36 35 29 28 32 27 23 22 21 18 20 23 21 23
37 39 38 36 34 32 33 34 33 33 33 32 31 29 28 30 30 29 32 35 33 35 39 41 41 40 38 32 31 30 31 27 35 30 24 21 16 15 24 23 22 25 24
36 37 37 37 38 35 32 32 32 31 31 30 29 28 28 28 26 29 31 31 32 35 36 36 37 36 32 30 30 28 22 31 27 21 16 11 18 28 24 26 28 24 21
32 29 29 30 31 31 32 32 31 30 29 28 27 26 26 24 25 28 29 29 32 31 30 30 30 28 28 24 28 26 32 32 28 19 16 26 26 23 26 27 23 23 24
32 29 26 26 28 28 29 28 27 26 25 24 24 24 24 22 23 26 28 26 26 25 24 22 21 21 24 23 26 32 32 30 17 17 22 18 20 24 26 21 24 23 25
33 33 32 30 28 25 24 24 22 21 21 21 21 20 18 20 20 21 20 18 17 18 19 20 20 21 20 22 28 28 30 18 14 15 15 17 20 22 21 22 22 24 24
30 31 29 27 24 22 20 18 17 17 17 16 14 13 14 14 13 11 9 10 10 11 12 13 15 16 18 20 23 26 16 20 20 22 23 21 21 24 25 27 25 21 22
27 25 24 23 20 18 16 15 14 13 12 10 9 10 11 10 8 7 6 4 4 4 6 7 11 17 20 23 24 20 23 25 24 25 24 26 27 24 21 20 18 20 22
24 22 21 19 16 13 11 10 9 9 8 7 8 7 7 6 8 12 7 8 9 8 7 6 8 15 22 23 22 26 24 22 23 23 24 28 24 20 18 17 19 21 21
18 16 15 13 11 8 5 5 6 8 10 10 10 10 10 11 11 13 10 10 10 10 9 9 9 11 16 20 21 21 20 21 22 25 27 24 22 20 19 19 20 21 23
17 15 12 9 8 10 13 14 15 15 13 15 17 17 16 16 16 13 11 11 10 9 9 9 10 12 14 16 17 17 18 21 24 24 24 22 21 21 21 23 23 25 24
17 13 11 14 16 17 18 19 16 15 16 16 17 16 16 14 13 11 9 8 6 5 5 6 8 10 12 14 15 17 21 22 22 22 21 20 21 22 24 25 25 24 22
16 17 18 19 18 17 15 17 20 16 14 13 12 12 11 11 10 9 7 6 5 7 8 8 9 12 14 15 17 19 20 21 20 21 22 22 22 24 24 23 23 24 22
18 18 19 20 19 17 16 15 15 15 14 14 12 11 11 10 10 9 7 5 6 6 8 9 9 11 12 13 15 17 17 18 19 20 20 19 19 19 20 22 22 21 21
19 19 18 17 18 18 16 15 14 13 14 13 13 10 10 10 8 7 6 5 5 6 6 8 8 9 10 11 13 15 16 16 17 17 17 17 18 20 21 20 20 20 20
19 16 18 19 18 17 16 15 14 13 12 11 10 8 7 6 5 4 3 2 1 4 6 9 11 12 14 14 15 16 16 16 16 16 17 18 19 20 20 19 18 18 18
20 20 19 19 19 17 15 14 12 10 9 7 4 4 2 2 4 5 7 9 10 12 13 14 15 16 16 17 17 18 18 18 18 18 18 19 20 20 18 18 17 17 17
22 20 19 19 18 16 14 12 11 8 5 3 2 3 4 6 8 10 11 13 14 15 16 16 17 17 17 18 18 18 18 18 18 18 19 19 19 18 17 16 16 16 17
18 20 19 19 17 16 14 12 10 7 4 1 1 4 6 9 11 13 14 15 16 17 18 18 18 18 18 19 20 20 19 19 20 20 20 20 19 17 16 16 16 17 17
20 19 18 17 15 13 12 10 7 4 2 2 5 8 10 12 13 15 16 17 17 18 19 20 20 20 20 20 21 21 20 20 19 19 19 19 18 17 17 17 16 16 17
19 20 18 16 13 11 8 6 2 1 4 6 8 11 13 14 16 17 18 18 19 20 19 19 20 20 20 20 20 19 19 20 19 19 19 19 19 18 18 18 17 17 17
18 16 15 12 9 6 4 1 2 4 7 10 12 14 15 16 17 18 19 19 19 19 18 19 19 19 19 19 19 19 19 19 20 20 21 21 20 19 19 18 18 18 18
Wind_Direction
313 311 306 296 282 274 269 267 265 266 268 271 273 272 266 261 254 245 248 251 246 253 253 249 258 260 268 266 259 249 242 237 243 236 240 233 215 213 213 217 236 248 264
300 300 306 303 285 274 270 271 271 269 268 271 272 273 270 261 255 247 246 248 248 253 252 258 254 257 261 264 255 252 246 236 234 235 245 217 209 205 214 226 237 257 259
294 295 302 303 284 274 273 274 272 271 269 268 269 271 271 266 259 252 250 251 250 253 255 251 251 261 266 261 256 252 243 234 226 232 222 207 200 206 217 229 248 255 255
295 292 299 301 289 278 275 273 271 267 268 269 269 270 268 264 258 253 252 253 254 253 256 259 249 257 262 258 254 250 237 229 221 219 208 201 204 211 228 247 253 246 259
297 298 303 301 288 278 274 274 275 266 268 270 269 268 265 260 256 253 250 255 257 254 257 257 251 256 261 258 253 244 228 215 209 200 199 200 207 227 267 260 242 251 265
301 300 301 295 290 284 274 273 270 269 270 268 268 267 264 259 257 252 250 255 256 259 260 257 251 252 256 253 247 233 228 203 204 202 211 214 235 281 276 244 248 262 270
301 297 293 290 288 286 277 270 269 269 268 268 268 266 262 259 252 248 249 253 258 260 258 260 256 256 254 249 235 219 205 209 215 222 226 251 272 280 258 240 254 264 268
302 299 292 286 284 282 278 274 272 269 267 265 263 262 261 258 249 248 251 255 260 261 256 254 257 256 252 241 220 196 200 200 220 233 264 276 277 270 250 257 263 261 270
296 293 289 286 283 278 275 270 267 265 262 261 262 259 259 255 250 251 255 259 263 262 257 254 250 245 239 229 201 197 208 219 230 258 259 275 290 279 269 260 261 270 278
293 291 288 284 278 274 269 265 262 259 256 252 251 253 251 250 252 257 259 259 256 254 249 242 232 230 222 205 202 212 217 217 242 251 285 294 286 281 267 265 266 270 282
295 289 285 279 273 267 264 263 258 254 249 247 245 243 242 244 243 243 241 245 247 251 246 237 223 209 205 206 210 210 218 240 253 266 277 288 291 278 265 255 260 269 272
294 288 282 278 272 265 260 257 255 252 247 242 231 225 228 229 221 192 154 160 196 216 219 214 209 198 188 200 203 215 236 251 258 268 278 288 293 282 272 266 267 267 265
289 285 280 273 267 260 255 249 238 224 205 187 196 194 192 182 171 162 140 111 105 110 127 154 194 206 200 205 220 235 249 255 267 272 278 288 282 276 269 257 265 268 268
271 270 265 261 254 239 209 163 147 149 154 158 151 142 138 133 139 156 148 131 124 126 133 148 174 199 218 227 232 242 254 259 268 275 280 277 271 268 260 262 266 262 272
257 245 242 229 191 154 135 127 133 128 124 130 126 121 121 121 124 132 137 133 127 135 145 159 176 197 211 225 237 248 257 265 270 273 273 273 271 260 260 266 261 268 273
241 223 188 177 161 153 146 137 133 132 129 126 122 120 118 119 123 132 141 144 150 166 181 206 219 231 242 250 258 264 265 266 268 270 268 265 261 258 261 264 269 272 275
212 173 167 163 162 156 154 147 149 144 132 126 122 120 120 122 125 127 137 160 182 213 238 248 249 255 262 270 271 269 268 270 269 265 264 269 266 265 268 270 270 275 284
204 182 175 171 168 158 155 155 148 142 142 136 138 141 137 141 142 149 156 180 193 219 240 255 260 265 273 277 275 278 280 278 273 275 277 276 273 271 270 270 276 283 281
206 181 175 177 168 160 157 152 143 138 137 136 135 135 128 130 133 138 146 168 195 220 242 265 279 286 284 279 275 275 276 277 279 279 280 280 277 274 275 279 279 278 280
188 186 180 176 172 163 158 152 152 151 145 142 140 132 127 121 118 123 138 172 255 283 291 297 298 297 292 288 285 282 282 281 279 278 277 276 276 277 278 278 277 277 279
191 182 179 178 176 168 162 160 155 151 151 149 131 109 104 40 0 349 339 332 327 319 313 309 306 302 298 293 288 285 281 279 278 276 275 276 278 279 276 274 274 274 272
177 172 178 179 172 163 157 154 144 142 146 136 103 35 11 348 338 329 325 323 319 315 312 311 307 303 298 294 290 286 281 278 277 276 275 274 274 274 272 271 270 268 267
174 176 174 170 162 157 153 148 143 146 153 153 341 333 328 324 323 320 318 316 315 314 311 309 305 300 297 293 290 287 285 283 280 278 276 273 272 272 271 270 268 269 273
172 171 168 161 154 151 149 148 152 153 159 317 322 321 319 316 312 310 310 311 311 308 306 303 301 298 296 294 291 289 288 285 281 277 274 273 273 271 269 269 269 269 269
163 164 160 156 154 155 152 150 149 277 303 311 309 308 308 306 307 309 310 310 307 304 301 299 297 296 296 294 291 289 289 287 286 281 278 276 275 273 271 271 270 268 269
161 159 156 153 156 159 163 193 286 299 303 305 305 307 308 308 307 305 305 303 300 299 299 300 299 298 297 296 295 292 289 286 282 281 280 278 276 275 273 271 268 267 267